Location: Regensburg
(48.4565°N, 10.3217°E)
Time: 04:00:34
(UTC+01:00)

ISS - Pass Details

Date: 12 February 2018
Orbit: 402 x 407 km, 51.6° (Epoch: 23 February)

Event Time Altitude Azimuth Distance (km) Brightness Sun altitude
Rises 18:32:22 0° 288° (WNW) 2,321 1.3 -10.0°
Reaches altitude 10° 18:34:40 10° 275° (W) 1,458 0.4 -10.4°
Maximum altitude 18:37:24 25° 218° (SW) 865 -1.6 -10.8°
Drops below altitude 10° 18:40:07 10° 161° (SSE) 1,452 -1.1 -11.3°
Sets 18:42:24 0° 147° (SSE) 2,308 -0.2 -11.6°
Enters shadow 18:42:32 - 147° (SSE) 2,361 -0.2 -11.7°
